TimeEST,TemperatureF,Dew PointF,Humidity,Sea Level PressureIn,VisibilityMPH,Wind Direction,Wind SpeedMPH,Gust SpeedMPH,PrecipitationIn,Events,Conditions,WindDirDegrees,DateUTC
12:53 AM,64.0,60.1,87,30.10,-9999.0,Calm,Calm,-,N/A,,Unknown,0,2013-01-13 05:53:00
1:53 AM,61.0,57.9,90,30.09,-9999.0,East,4.6,-,N/A,,Unknown,100,2013-01-13 06:53:00
2:53 AM,63.0,59.0,87,30.07,-9999.0,ESE,8.1,-,N/A,,Unknown,120,2013-01-13 07:53:00
3:53 AM,62.1,59.0,90,30.07,-9999.0,SE,5.8,-,N/A,,Unknown,140,2013-01-13 08:53:00
4:53 AM,62.1,59.0,90,30.06,-9999.0,ESE,4.6,-,N/A,,Unknown,120,2013-01-13 09:53:00
5:53 AM,61.0,57.9,90,30.06,-9999.0,SE,4.6,-,N/A,,Unknown,130,2013-01-13 10:53:00
6:53 AM,62.1,59.0,90,30.09,-9999.0,Calm,Calm,-,N/A,,Unknown,0,2013-01-13 11:53:00
7:53 AM,63.0,60.1,90,30.13,-9999.0,Calm,Calm,-,N/A,,Unknown,0,2013-01-13 12:53:00
8:53 AM,64.9,62.1,90,30.13,-9999.0,SE,5.8,-,N/A,,Unknown,140,2013-01-13 13:53:00
9:53 AM,72.0,64.0,76,30.14,-9999.0,South,11.5,-,N/A,,Unknown,170,2013-01-13 14:53:00
10:53 AM,75.0,62.1,64,30.14,-9999.0,South,11.5,-,N/A,,Unknown,180,2013-01-13 15:53:00
11:53 AM,79.0,60.1,52,30.11,-9999.0,SSE,10.4,20.7,N/A,,Unknown,160,2013-01-13 16:53:00
12:53 PM,80.1,59.0,48,30.08,-9999.0,SSE,11.5,-,N/A,,Unknown,160,2013-01-13 17:53:00
1:53 PM,77.0,60.1,56,30.06,-9999.0,South,10.4,-,N/A,,Unknown,170,2013-01-13 18:53:00
2:53 PM,78.1,61.0,56,30.08,-9999.0,SSW,12.7,-,N/A,,Unknown,200,2013-01-13 19:53:00
3:53 PM,78.1,61.0,56,30.09,-9999.0,SSW,9.2,-,N/A,,Unknown,200,2013-01-13 20:53:00
4:53 PM,75.9,61.0,60,30.08,-9999.0,SSE,4.6,-,N/A,,Unknown,160,2013-01-13 21:53:00
5:53 PM,72.0,61.0,68,30.09,-9999.0,South,3.5,-,N/A,,Unknown,190,2013-01-13 22:53:00
6:53 PM,69.1,62.1,78,30.09,-9999.0,South,4.6,-,N/A,,Unknown,180,2013-01-13 23:53:00
7:53 PM,68.0,62.1,81,30.11,-9999.0,South,3.5,-,N/A,,Unknown,170,2013-01-14 00:53:00
8:53 PM,63.0,60.1,90,30.10,-9999.0,Calm,Calm,-,N/A,,Unknown,0,2013-01-14 01:53:00
9:53 PM,62.1,59.0,90,30.12,-9999.0,Calm,Calm,-,N/A,,Unknown,0,2013-01-14 02:53:00
10:53 PM,60.1,57.9,93,30.12,-9999.0,Calm,Calm,-,N/A,,Unknown,0,2013-01-14 03:53:00
11:53 PM,59.0,57.0,93,30.14,-9999.0,Calm,Calm,-,N/A,,Unknown,0,2013-01-14 04:53:00